Terug naar catalogus

FENGYUN 1C DEB

ActiefSSO
NORAD 31423·DEBRIS·🇨🇳 China

Gelanceerd May 10, 1999 vanaf Taiyuan Satellite Launch Center

Loading…

Volgende Passages (komende 24 uur)

TLE

VersSource: Space-Track

Epoch: Sep 14, 2026, 10:03 UTC

1 31423U 99025BTK 26257.41878537  .00000145  00000-0  82649-4 0  9996
2 31423  98.6133 236.8348 0037402 113.8304 246.6802 14.23136344  8293

Volg FENGYUN 1C DEB in realtime met AllMySat

Download on the App Store